This demonstration page uses our WeatherBlox Daily Observations layout. Learn more.

Left ArrowRight Arrow

44.89941, -97.11507

Hourly Observations for June 14, 2018

Temp ( °F °C ) Dew Point ( °F °C ) Humidity (%) Winds ( mph kmh ) Pressure ( in mb ) Visibility ( mi km ) Precip ( " mm )
12:53 am 00:53 Mostly Clear 61 16.1 53 11.7 75 75 SE 7 11 29.90 1013 10 16 0.00 0.00
1:53 am 01:53 Clear 61 16.1 50 10 67 67 SSE 12 19 29.88 1012 10 16 0.00 0.00
2:53 am 02:53 Clear 60 15.6 51 10.6 72 72 SSE 9 15 29.87 1011 10 16 0.00 0.00
3:53 am 03:53 Clear 60 15.6 52 11.1 75 75 SSE 13 20 29.85 1011 10 16 0.00 0.00
4:53 am 04:53 Clear 60 15.6 53 11.7 78 78 SSE 13 20 29.84 1010 10 16 0.00 0.00
5:53 am 05:53 Sunny 60 15.6 53 11.7 78 78 SSE 13 20 29.80 1009 10 16 0.00 0.00
6:53 am 06:53 Mostly Cloudy 63 17.2 55 12.8 76 76 SE 13 20 29.79 1009 10 16 0.00 0.00
7:50 am 07:50 Partly Cloudy 66 19 55 13 68 68 SSE 17 28 29.74 1007 10 16 0.00 0.00
7:53 am 07:53 Mostly Sunny 66 18.9 56 13.3 70 70 SSE 16 26 29.78 1009 10 16 0.00 0.00
8:53 am 08:53 Sunny 70 21.1 61 16.1 73 73 SSE 16 26 29.78 1008 10 16 0.00 0.00
9:53 am 09:53 Sunny 73 22.8 65 18.3 76 76 SSE 15 24 29.76 1008 10 16 0.00 0.00
10:53 am 10:53 Sunny 77 25 66 18.9 69 69 SSE 20 31 29.74 1007 10 16 0.00 0.00
11:53 am 11:53 Sunny 78 25.6 66 18.9 67 67 SSE 22 35 29.74 1007 10 16 0.00 0.00
12:53 pm 12:53 Mostly Sunny 79 26.1 66 18.9 65 65 SSE 22 35 29.72 1006 10 16 0.00 0.00
1:53 pm 13:53 Sunny 80 26.7 66 18.9 62 62 SE 22 35 29.70 1006 10 16 0.00 0.00
2:53 pm 14:53 Sunny 81 27.2 67 19.4 62 62 SSE 23 37 29.69 1005 10 16 0.00 0.00
3:53 pm 15:53 Sunny 81 27.2 67 19.4 62 62 SSE 23 37 29.63 1003 10 16 0.00 0.00
4:53 pm 16:53 Sunny 83 28.3 68 20 61 61 S 26 43 29.61 1003 10 16 0.00 0.00
5:53 pm 17:53 Sunny 85 29.4 69 20.6 59 59 S 24 39 29.63 1003 10 16 0.00 0.00
6:53 pm 18:53 Sunny 84 28.9 69 20.6 61 61 SSE 24 39 29.60 1002 10 16 0.00 0.00
7:53 pm 19:53 Sunny 81 27.2 69 20.6 67 67 SSE 16 26 29.59 1002 10 16 0.00 0.00
8:53 pm 20:53 Sunny 79 26.1 69 20.6 72 72 SSE 13 20 29.59 1002 10 16 0.00 0.00
9:53 pm 21:53 Clear 77 25 69 20.6 77 77 SSE 12 19 29.60 1002 10 16 0.00 0.00
10:53 pm 22:53 Clear 76 24.4 69 20.6 79 79 SSE 14 22 29.60 1002 10 16 0.00 0.00
11:53 pm 23:53 Clear 75 23.9 69 20.6 82 82 SSE 15 24 29.59 1002 10 16 0.00 0.00

Powered by AerisWeather